Flag for Luxembourg Weather past 2 weeks in Esch-sur-Alzette, Luxembourg

Now
57 °F

Passing clouds.


Feels Like: 55 °F
Forecast: 53 / 66 °F
Wind: 12 mph from Northeast

Location: Luxembourg Airport

Current Time: May 23, 2015 at 9:42:28 AM

Latest Report: May 23, 2015 at 8:50 AM


Visibility: N/A

Pressure: 30.15 "Hg

Humidity: 63%

Dew point: 45 °F

Location of Esch-sur-AlzetteLocation

Historic Weather in Esch-sur-Alzette — Graph

°F

Esch-sur-Alzette temperature yesterday

Maximum temperature yesterday: 66 °F (at 4:20 PM)
Minimum temperature yesterday: 48 °F (at 12:50 AM)
Average temperature yesterday: 58 °F

Past Weeks' High & Low Weather Summary

 TemperatureHumidityPressure
High77 °F (May 12, 1:50 PM)100% (May 9, 8:50 AM)30.33 "Hg (May 9, 8:50 AM)
Low37 °F (May 21, 5:20 AM)32% (May 21, 4:50 PM)29.71 "Hg (May 18, 9:20 PM)
Average56 °F68%30.09 "Hg
* Reported May 8 7:20 AM — May 23 7:50 AM, Esch-sur-Alzette, Weather by CustomWeather, © 2015

Note: Actual official high and low records may vary slightly from our data, if they occured in-between our weather recording intervals... More about our weather records

Advertising

Esch-sur-Alzette weather history for previous 24 hours

 ConditionsComfort  
Time TempWeatherWind HumidityBarometerVisibility
7:50 AM
Sat, May 23
55 °FPassing clouds.9 mph67%30.15 "HgN/A
7:20 AM54 °FPassing clouds.9 mph72%30.15 "HgN/A
6:50 AM54 °FSunny.9 mph67%30.15 "Hg10 mi
6:20 AM52 °FPassing clouds.9 mph72%30.15 "HgN/A
5:50 AM52 °FClear.8 mph72%30.15 "Hg10 mi
5:20 AM54 °FClear.8 mph63%30.15 "Hg10 mi
4:50 AM54 °FClear.9 mph63%30.15 "Hg10 mi
4:20 AM54 °FCool.6 mph63%30.15 "HgN/A
3:50 AM54 °FCool.8 mph67%30.15 "HgN/A
3:20 AM54 °FCool.7 mph63%30.15 "HgN/A
2:50 AM54 °FCool.8 mph67%30.15 "HgN/A
2:20 AM55 °FCool.7 mph63%30.15 "HgN/A
1:50 AM57 °FClear.8 mph59%30.18 "Hg10 mi
1:20 AM57 °FPassing clouds.7 mph59%30.18 "HgN/A
12:50 AM59 °FClear.7 mph55%30.18 "Hg10 mi
12:20 AM59 °FClear.9 mph55%30.18 "Hg10 mi
11:50 PM
Fri, May 22
59 °FPassing clouds.9 mph55%30.18 "HgN/A
10:50 PM59 °FClear.5 mph51%30.18 "Hg10 mi
10:20 PM61 °FSunny.5 mph48%30.18 "Hg10 mi
9:50 PM61 °FSunny.5 mph48%30.18 "Hg10 mi
9:20 PM61 °FSunny.5 mph48%30.18 "Hg10 mi
8:50 PM61 °FSunny.5 mph48%30.18 "Hg10 mi
8:20 PM63 °FPassing clouds.7 mph45%30.18 "HgN/A
7:50 PM64 °FPassing clouds.6 mph40%30.18 "HgN/A
7:20 PM64 °FSunny.3 mph40%30.18 "Hg10 mi
6:50 PM66 °FSunny.3 mph35%30.18 "Hg10 mi
6:20 PM64 °FSunny.2 mph40%30.18 "Hg10 mi
5:50 PM64 °FSunny.3 mph37%30.21 "Hg10 mi
5:20 PM66 °FSunny.1 mph35%30.21 "Hg10 mi
4:50 PM64 °FPassing clouds.5 mph40%30.21 "HgN/A
4:20 PM66 °FPassing clouds.5 mph37%30.24 "HgN/A
3:50 PM64 °FSunny.3 mph40%30.24 "Hg10 mi
3:20 PM64 °FSunny.2 mph40%30.24 "Hg10 mi
2:50 PM64 °FSunny.1 mph40%30.24 "Hg10 mi
2:20 PM64 °FSunny.5 mph40%30.27 "Hg10 mi
1:50 PM64 °FPassing clouds.5 mph40%30.27 "HgN/A
1:20 PM63 °FSunny.5 mph45%30.27 "Hg10 mi
12:50 PM63 °FSunny.1 mph49%30.30 "Hg10 mi
12:20 PM61 °FPartly sunny.1 mph48%30.30 "HgN/A
11:50 AM61 °FBroken clouds.2 mph52%30.30 "HgN/A
11:20 AM59 °FBroken clouds.2 mph51%30.30 "HgN/A
10:50 AM59 °FPartly sunny.3 mph51%30.30 "HgN/A
10:20 AM59 °FPartly sunny.5 mph55%30.33 "HgN/A
9:50 AM59 °FPassing clouds.6 mph55%30.33 "HgN/A
9:20 AM57 °FPassing clouds.6 mph55%30.33 "HgN/A
Weather by CustomWeather, © 2015

See weather overviewHow to use our weather pages